TimeCDT,TemperatureF,Dew PointF,Humidity,Sea Level PressureIn,VisibilityMPH,Wind Direction,Wind SpeedMPH,Gust SpeedMPH,PrecipitationIn,Events,Conditions,WindDirDegrees,DateUTC
12:56 AM,71.1,60.1,68,29.94,10.0,South,8.1,-,N/A,,Clear,180,2013-07-05 05:56:00
1:56 AM,70.0,59.0,68,29.93,10.0,South,6.9,-,N/A,,Clear,170,2013-07-05 06:56:00
2:56 AM,68.0,59.0,73,29.93,10.0,South,4.6,-,N/A,,Clear,190,2013-07-05 07:56:00
3:56 AM,64.0,59.0,84,29.94,10.0,Calm,Calm,-,N/A,,Clear,0,2013-07-05 08:56:00
4:56 AM,62.1,57.9,86,29.94,10.0,Calm,Calm,-,N/A,,Clear,0,2013-07-05 09:56:00
5:56 AM,64.0,57.9,80,29.94,10.0,South,5.8,-,N/A,,Clear,180,2013-07-05 10:56:00
6:56 AM,68.0,57.9,70,29.95,10.0,SSW,4.6,-,N/A,,Clear,200,2013-07-05 11:56:00
7:56 AM,71.1,57.9,63,29.96,10.0,South,8.1,-,N/A,,Clear,170,2013-07-05 12:56:00
8:56 AM,75.9,59.0,56,29.96,10.0,South,10.4,-,N/A,,Clear,190,2013-07-05 13:56:00
9:56 AM,79.0,57.9,48,29.95,10.0,SSW,11.5,18.4,N/A,,Clear,200,2013-07-05 14:56:00
10:56 AM,82.9,57.9,42,29.94,10.0,SSW,12.7,-,N/A,,Clear,200,2013-07-05 15:56:00
11:56 AM,84.9,57.0,38,29.92,10.0,SSW,16.1,-,N/A,,Clear,210,2013-07-05 16:56:00
12:56 PM,87.1,55.9,35,29.90,10.0,South,15.0,21.9,N/A,,Clear,180,2013-07-05 17:56:00
1:56 PM,87.1,55.9,35,29.89,10.0,South,18.4,28.8,N/A,,Clear,180,2013-07-05 18:56:00
2:56 PM,89.1,55.9,32,29.89,10.0,SSW,15.0,21.9,N/A,,Partly Cloudy,210,2013-07-05 19:56:00
3:56 PM,88.0,57.0,35,29.88,10.0,South,15.0,20.7,N/A,,Clear,190,2013-07-05 20:56:00
4:56 PM,86.0,57.0,37,29.88,10.0,South,12.7,26.5,N/A,,Clear,190,2013-07-05 21:56:00
5:56 PM,84.9,57.9,40,29.87,10.0,South,12.7,-,N/A,,Clear,190,2013-07-05 22:56:00
6:56 PM,82.9,57.0,41,29.86,10.0,South,13.8,21.9,N/A,,Clear,170,2013-07-05 23:56:00
7:56 PM,82.0,57.9,44,29.86,10.0,South,15.0,-,N/A,,Clear,170,2013-07-06 00:56:00
8:56 PM,81.0,57.9,45,29.86,10.0,South,11.5,-,N/A,,Clear,180,2013-07-06 01:56:00
9:56 PM,79.0,59.0,50,29.88,10.0,South,10.4,-,N/A,,Mostly Cloudy,180,2013-07-06 02:56:00
10:56 PM,78.1,59.0,52,29.88,10.0,South,10.4,-,N/A,,Mostly Cloudy,180,2013-07-06 03:56:00
11:56 PM,77.0,59.0,54,29.89,10.0,South,10.4,-,N/A,,Partly Cloudy,180,2013-07-06 04:56:00